This is the latest recevied weather packets stored in our database for station/object K0QJ. If no packets are shown the sender has not sent any weather packets the latest 10 day(s).
| Time | Temp. | Humidity | Pressure | Rain* | Wind** | Luminosity | Snow |
|---|---|---|---|---|---|---|---|
| 1778116083 | 13.89° C | 38% | 1016.1 hPa | 0 mm | - | 2 W/m² | - |
| 1778115779 | 13.89° C | 40% | 1016.1 hPa | 0 mm | - | 5 W/m² | - |
| 1778115476 | 13.89° C | 37% | 1015.9 hPa | 0 mm | - | 6 W/m² | - |
| 1778115172 | 13.89° C | 37% | 1015.6 hPa | 0 mm | - | 8 W/m² | - |
| 1778114869 | 14.44° C | 37% | 1015.6 hPa | 0 mm | - | 10 W/m² | - |
| 1778114567 | 14.44° C | 36% | 1016 hPa | 0 mm | - | 12 W/m² | - |
| 1778114263 | 14.44° C | 37% | 1015.9 hPa | 0 mm | - | 13 W/m² | - |
| 1778113958 | 14.44° C | 36% | 1015.7 hPa | 0 mm | - | 15 W/m² | - |
| 1778113655 | 15° C | 36% | 1015.9 hPa | 0 mm | - | 16 W/m² | - |
| 1778113351 | 14.44° C | 35% | 1016.1 hPa | 0 mm | - | 18 W/m² | - |
| 1778113048 | 15° C | 36% | 1015.9 hPa | 0 mm | - | 19 W/m² | - |
| 1778112745 | 15° C | 36% | 1015.7 hPa | 0 mm | - | 20 W/m² | - |
| 1778112441 | 14.44° C | 37% | 1015.7 hPa | 0 mm | - | 22 W/m² | - |
| 1778112137 | 14.44° C | 38% | 1015.9 hPa | 0 mm | - | 22 W/m² | - |
| 1778111834 | 15° C | 36% | 1015.9 hPa | 0 mm | - | 24 W/m² | - |
| 1778111529 | 15° C | 36% | 1015.9 hPa | 0 mm | - | 25 W/m² | - |
| 1778111227 | 14.44° C | 35% | 1015.9 hPa | 0 mm | - | 25 W/m² | - |
| 1778110924 | 15° C | 35% | 1016 hPa | 0 mm | - | 26 W/m² | - |
| 1778110622 | 15° C | 36% | 1015.7 hPa | 0 mm | - | 26 W/m² | - |
| 1778110318 | 15° C | 36% | 1016 hPa | 0 mm | - | 26 W/m² | - |
| 1778110014 | 15° C | 35% | 1016 hPa | 0 mm | - | 29 W/m² | - |
| 1778109709 | 15° C | 35% | 1015.9 hPa | 0 mm | - | 28 W/m² | - |
| 1778109407 | 15° C | 35% | 1015.6 hPa | 0 mm | - | 29 W/m² | - |
| 1778109105 | 15° C | 35% | 1015.7 hPa | 0 mm | - | 30 W/m² | - |
| 1778108802 | 15.56° C | 34% | 1015.6 hPa | 0 mm | - | 29 W/m² | - |
* Rain latest hour (hover to see other rain measurements)
** Current wind speed in m/s (hover to see current wind gust speed)